Regional Weather Roundup
Issued by NWS Green Bay, WI

Home | Current Version | Previous Version | Graphics & Text | Print | Product List | Glossary Off
Versions: 1 2 3 4 5 6 7 8 9 10 11 12 13 14 15 16 17 18 19 20 21 22 23 24 25 26 27 28 29 30 31 32 33 34 35 36 37 38 39 40 41 42 43 44 45 46 47 48 49 50

627
ASUS43 KGRB 212211
RWRGRB

NORTH-CENTRAL AND NORTHEAST WISCONSIN REGIONAL WEATHER ROUNDUP
NATIONAL WEATHER SERVICE GREEN BAY WI
500 PM CDT MON AUG 21 2017

WIZ005-009-010>012-018-019-212300-
NORTH CENTRAL WISCONSIN

CITY           SKY/WX    TMP DP  RH WIND       PRES   REMARKS
IRONWOOD       CLOUDY    67  63  87 N5        29.92F
MANITOWISH WTR CLOUDY    75  66  74 SE6       29.92F
ARBOR VITAE    CLOUDY    77  67  72 S5        29.92F
EAGLE RIVER    CLOUDY    75  64  68 CALM      29.93F
LAND O LAKES   CLOUDY    73  65  76 CALM      29.96F
RHINELANDER    TSTM      72  69  90 VRB7      29.94F
PHILLIPS       CLOUDY    75  67  77 S3        29.91F
ANTIGO         HVY RAIN  71  67  87 S18G33    29.98R
TOMAHAWK       HVY RAIN  68  65  90 CALM      29.94F
MERRILL        LGT RAIN  70  68  94 S3        29.95S
$$

WIZ013-073-212300-
NORTHEAST WISCONSIN

CITY           SKY/WX    TMP DP  RH WIND       PRES   REMARKS
IRON MOUNTAIN  CLOUDY    77  64  64 SE6       29.92S
MARINETTE      CLOUDY    78  71  79 S5        29.94S
OCONTO         CLOUDY    79  70  73 S7        29.92S
$$

WIZ017-030-035>037-045-212300-
CENTRAL WISCONSIN

CITY           SKY/WX    TMP DP  RH WIND       PRES   REMARKS
MEDFORD        CLOUDY    70  65  84 S7        29.92F
WAUSAU         CLOUDY    74  69  85 W7        29.92F
MOSINEE        PTSUNNY   75  68  78 W8        29.95F
MARSHFIELD     CLOUDY    75  64  68 SW8       29.95F
WISC RAPIDS    CLOUDY    78  67  68 SW10      29.97S
STEVENS POINT  CLOUDY    76  64  65 SW12G18   29.95F
WAUPACA        PTSUNNY   81  66  61 SW8       29.94F
SHAWANO        CLOUDY    81  68  64 S3        29.92F
CLINTONVILLE   CLOUDY    79  64  61 S7        29.92F
WAUTOMA        CLOUDY    79  69  71 SW7       29.95F
$$

WIZ038-039-048-051-212300-
FOX VALLEY

CITY           SKY/WX    TMP DP  RH WIND       PRES   REMARKS
NWS GREEN BAY  CLOUDY    79  71  76 SW3       29.93F
APPLETON       PTSUNNY   79  63  57 SW7       29.94S
OSHKOSH        MOSUNNY   79  69  71 S6        29.94S
FOND DU LAC    CLOUDY    80  68  66 S3        29.94S
$$

WIZ022-050-052-212300-
EAST CENTRAL WISCONSIN

CITY           SKY/WX    TMP DP  RH WIND       PRES   REMARKS
EPHRAIM        CLOUDY    73  68  85 S5        29.93R
WASHINGTON ISL FAIR      73  68  85 S7        29.93R
STURGEON BAY   CLOUDY    77  69  76 S8        29.95R
MANITOWOC        N/A    N/A N/A N/A MISG        N/A
SHEBOYGAN      PTSUNNY   77  70  79 SE8       29.95S
$$

LMZ563-521-522-541>543-212300-
LAKESHORE

STATION/POSITION TIME  TEMP    WIND        PRES    VSBY  WAVE
                       AIR SEA DIR/SP/G                  HT/PER
                 (UTC) (F)     (DEG/KT/KT) (MB)    (MI)  (FT/S)
SHEBOYGAN LKSHOR 2200   72     170/ 12/ 13 1013.6S
KEWAUNEE LKSHORE 2142   71     180/ 11/ 13 1013.3R
NORTHPORT PIER   2140   71     150/  8/ 12 1013.2S
N MID LAKE BUOY  2150   69 69  180/  4/  6 1013.8F         1
S GREEN BAY BUOY 2200   76 74  230/  2/  2 1013.6
SISTER BAY LKSHO 2203   75     170/ 12/ 15   N/A
MENOMINEE LKSHOR 2142   74     180/  4/  5 1013.3R
$$




USA.gov is the U.S. government's official web portal to all federal, state and local government web resources and services.